AKST,Max TemperatureF,Mean TemperatureF,Min TemperatureF,Max Dew PointF,MeanDew PointF,Min DewpointF,Max Humidity, Mean Humidity, Min Humidity, Max Sea Level PressureIn, Mean Sea Level PressureIn, Min Sea Level PressureIn, Max VisibilityMiles, Mean VisibilityMiles, Min VisibilityMiles, Max Wind SpeedMPH, Mean Wind SpeedMPH, Max Gust SpeedMPH,PrecipitationIn, CloudCover, Events, WindDirDegrees
2012-11-1,44,32,23,35,25,17,85,71,53,29.83,29.78,29.70,10,10,10,7,2,,0.00,2,Rain,130
2012-11-2,48,46,43,46,43,36,100,91,71,29.69,29.62,29.59,10,8,2,23,10,31,0.70,8,Rain,159
2012-11-3,48,46,44,45,42,39,93,86,76,29.81,29.69,29.59,10,10,4,22,13,32,0.17,8,Rain,142
2012-11-4,53,48,43,50,43,39,96,86,74,29.79,29.43,29.08,10,7,3,38,17,60,3.17,8,Rain,146
2012-11-5,46,44,42,43,40,38,93,84,76,30.22,30.08,29.83,10,9,3,16,9,22,0.55,8,Rain,141
2012-11-6,45,42,39,40,39,37,100,89,76,30.04,29.86,29.76,10,9,4,22,13,31,1.15,8,Rain,150
2012-11-7,42,38,33,39,37,32,100,95,85,30.22,30.04,29.87,10,10,10,8,2,,0.07,6,Rain,285
2012-11-8,39,36,34,36,32,27,93,81,70,30.27,30.24,30.22,10,10,10,12,8,18,0.00,1,,309
2012-11-9,37,32,26,27,25,23,92,76,59,30.21,30.16,30.12,10,10,10,13,8,20,0.00,0,,304
2012-11-10,39,32,25,30,25,23,96,70,55,30.09,29.98,29.86,10,10,10,18,7,30,0.00,5,Rain,148
2012-11-11,39,38,36,38,36,33,93,90,86,29.84,29.78,29.76,10,8,4,17,12,25,0.59,8,Rain,159
2012-11-12,43,40,37,40,39,37,100,92,81,29.98,29.86,29.78,10,10,7,10,5,16,0.37,8,Rain,165
2012-11-13,42,40,37,40,38,36,100,96,89,30.06,30.03,29.98,10,6,1,13,3,,0.09,8,Rain,142
2012-11-14,46,42,39,45,41,39,100,95,86,30.08,30.01,29.87,10,6,0,23,7,34,0.86,8,Fog-Rain,145
2012-11-15,44,42,39,40,38,36,93,87,73,29.93,29.77,29.47,10,9,4,18,8,36,0.42,7,Rain,152
2012-11-16,43,40,36,41,38,35,97,88,76,29.44,29.39,29.32,10,8,5,24,13,37,1.36,7,Rain,145
2012-11-17,41,38,34,39,36,32,97,92,73,29.33,29.07,28.93,10,9,6,13,3,,0.37,7,Rain,168
2012-11-18,45,42,39,40,36,29,97,83,53,29.28,29.17,29.05,10,9,2,24,8,36,0.40,8,Rain,149
2012-11-19,44,42,41,39,37,35,89,80,71,29.39,29.21,29.05,10,10,9,26,13,34,0.14,8,Rain,146
2012-11-20,46,40,34,36,33,26,96,76,47,29.45,29.38,29.31,10,10,10,15,5,28,0.04,6,Rain,168
2012-11-21,39,36,35,35,34,33,96,91,77,29.94,29.70,29.43,10,10,6,12,3,21,0.25,8,Rain,175
2012-11-22,44,42,39,39,35,29,87,79,55,29.92,29.58,29.39,10,8,4,31,18,46,0.95,8,Rain,139
2012-11-23,45,42,41,41,38,36,93,85,80,29.66,29.59,29.54,10,10,5,30,20,38,0.72,8,Rain,134
2012-11-24,45,42,39,43,40,36,96,89,81,30.15,29.86,29.68,10,8,4,21,15,37,0.83,8,Rain,128
2012-11-25,43,40,37,41,38,37,97,93,89,30.25,30.23,30.18,10,10,8,12,5,,0.22,8,Rain,144
2012-11-26,39,37,33,38,36,32,100,95,89,30.25,30.18,30.06,10,10,10,10,2,,0.00,5,Rain,326
2012-11-27,39,36,32,38,34,31,96,91,83,30.05,29.91,29.80,10,10,10,8,2,,0.15,5,Rain,182
2012-11-28,42,40,37,41,40,37,100,97,93,29.78,29.54,29.37,10,8,4,4,0,,0.59,8,Rain,290
2012-11-29,43,41,39,40,39,37,100,95,82,29.35,29.29,29.24,10,8,4,6,1,,0.89,8,Rain,244
2012-11-30,39,37,35,39,33,28,100,84,70,29.28,29.18,29.14,10,10,6,15,6,22,0.23,8,Rain-Snow,317